User: anonymous   Login
Location: Unspecified
(0.0000°N, 0.0000°E)
Time: 14:01:41
(UTC+02:00)
Language:

Iridium 39 - Orbit

View from above orbital plane
View from above orbital plane
View from above satellite
View from above satellite

Ground track
Ground track

The orbit data is extracted from the following two-line orbital elements,

1 25042U 97069D   17232.84987279 +.00000101 +00000-0 +22519-4 0  9998
2 25042 086.3960 351.6207 0021242 097.4629 262.8988 14.46172626035807
Epoch (UTC): 20 August 2017 20:23:49
Eccentricity: 0.0021242
inclination: 86.3960°
perigee height: 723 km
apogee height: 753 km
right ascension of ascending node: 351.6207°
argument of perigee: 97.4629°
revolutions per day: 14.46172626
mean anomaly at epoch: 262.8988°
orbit number at epoch: 3580

The dashed part of the orbit path shows where the satellite is in the earth's shadow,  

DLR